Location: Harrisburg
(40.2740°N, 76.8850°W)
Time: 07:30:25
(UTC-05:00)

Amateur Radio Satellites - All Passes

Search period start: 12 December 2017 07:00
Search period end: 13 December 2017 07:00
Location: Harrisburg, 40.2740°N, 76.8850°W

Satellite Date Start Highest point End Downlink Frequencies (MHz)
Time Altitude Azimuth
ZACube-1 12 Dec 07:17:52 07:20:40 17° 93° (E) 07:23:30 437.345
AO-85 12 Dec 07:19:46 07:24:33 67° 57° (ENE) 07:29:41 145.980
NO-84 12 Dec 07:27:13 07:30:14 76° 136° (SE) 07:33:30 435.350 FM
BEESAT 2 12 Dec 07:27:31 07:30:55 27° 247° (WSW) 07:34:16 435.950
HO-68 12 Dec 07:29:30 07:36:42 89° 289° (WNW) 07:43:52 435.675
LilacSat-2 12 Dec 07:30:07 07:31:46 12° 295° (WNW) 07:33:25 437.200
FO-29 12 Dec 07:32:00 07:39:36 72° 73° (ENE) 07:47:28 435.910
SEEDS 12 Dec 07:40:27 07:44:42 74° 285° (WNW) 07:48:55 437.485
STRAND 1 12 Dec 07:40:47 07:45:12 29° 264° (W) 07:49:38 437.568
Oscar 11 12 Dec 07:42:38 07:45:36 18° 93° (E) 07:48:33 .
CUTE-I 12 Dec 07:46:31 07:50:38 23° 296° (WNW) 07:54:43 437.470
XW-2A 12 Dec 07:50:25 07:53:49 62° 101° (E) 07:57:12 145.665 - 145.685
AO-73 12 Dec 07:52:42 07:56:42 35° 98° (E) 08:00:45 145.935
CUTE 1.7 + AOD 2 12 Dec 07:58:08 08:01:51 29° 290° (WNW) 08:05:32 437.475
AAUSAT CUBESAT 2 12 Dec 08:08:18 08:12:29 85° 283° (WNW) 08:16:38 437.432
CUBEBUG 2 12 Dec 08:15:59 08:19:42 31° 289° (WNW) 08:23:31 437.445
UWE-3 12 Dec 08:21:25 08:25:32 48° 287° (WNW) 08:29:45 435.000/436.395/437.385
O/OREOS (USA 219) 12 Dec 08:47:56 08:52:29 67° 109° (ESE) 08:57:03 437.305
Max Valier Satellite 12 Dec 08:50:27 08:51:33 11° 91° (E) 08:52:38 145.860
PRISM 12 Dec 08:50:35 08:53:15 17° 65° (ENE) 08:55:54 437.425
TIGRISAT 12 Dec 08:50:44 08:54:55 50° 74° (ENE) 08:59:03 435.000
ZACube-1 12 Dec 08:53:01 08:57:06 42° 287° (WNW) 09:01:15 437.345
UNISAT 6 12 Dec 08:53:07 08:57:23 60° 74° (ENE) 09:01:36 437.425
AO-85 12 Dec 09:01:39 09:04:33 16° 251° (WSW) 09:07:32 145.980
NO-84 12 Dec 09:05:50 09:07:54 16° 336° (NNW) 09:10:04 435.350 FM
Oscar 11 12 Dec 09:17:48 09:21:52 39° 288° (WNW) 09:25:55 .
HO-68 12 Dec 09:19:01 09:23:27 18° 305° (NW) 09:27:52 435.675
FO-29 12 Dec 09:19:19 09:25:10 24° 270° (W) 09:31:13 435.910
EO-88 12 Dec 09:23:47 09:26:29 19° 94° (E) 09:29:11 145.990 - 145.960
AO-73 12 Dec 09:29:30 09:32:41 20° 292° (WNW) 09:35:56 145.935
DELFI C3 12 Dec 09:36:49 09:40:45 67° 101° (E) 09:44:39 145.870
AIST 2D 12 Dec 09:53:14 09:56:03 23° 70° (ENE) 09:58:53 435.315
EO-79 12 Dec 10:07:35 10:09:45 14° 64° (ENE) 10:11:54 145.935-145.965
Max Valier Satellite 12 Dec 10:22:00 10:25:35 45° 286° (WNW) 10:29:09 145.860
PRISM 12 Dec 10:24:14 10:28:09 40° 261° (W) 10:32:07 437.425
POLYITAN 1 12 Dec 10:28:28 10:31:46 23° 68° (ENE) 10:35:05 437.675
TIGRISAT 12 Dec 10:29:49 10:31:52 13° 269° (W) 10:33:55 435.000
O/OREOS (USA 219) 12 Dec 10:29:59 10:32:22 14° 307° (NW) 10:34:46 437.305
UNISAT 6 12 Dec 10:33:10 10:34:26 11° 269° (W) 10:35:43 437.425
QB50P2 12 Dec 10:53:02 10:57:05 48° 73° (ENE) 11:01:09 145.880/145.840
EO-88 12 Dec 10:57:03 11:00:04 25° 290° (WNW) 11:03:06 145.990 - 145.960
ESTCUBE 1 12 Dec 10:59:08 11:03:04 28° 96° (E) 11:06:58 437.505/2401.250
DUCHIFAT 1 12 Dec 11:02:50 11:06:45 42° 72° (ENE) 11:10:41 145.980
AIST 2D 12 Dec 11:26:38 11:29:09 19° 266° (W) 11:31:41 435.315
NANOSAT C BR1 12 Dec 11:27:23 11:31:33 85° 258° (WSW) 11:35:45 145.865
LO-87 12 Dec 11:35:54 11:39:24 69° 284° (WNW) 11:42:55 145.935 - 145.965
EO-79 12 Dec 11:40:58 11:45:03 50° 260° (W) 11:49:09 145.935-145.965
AO-91 12 Dec 11:44:10 11:47:31 18° 67° (ENE) 11:50:41 145.960
BUGSAT 1 12 Dec 11:54:24 11:58:08 36° 72° (ENE) 12:01:51 437.445
Oscar 19 12 Dec 11:55:06 11:59:18 26° 66° (ENE) 12:03:32 437.125/150
POLYITAN 1 12 Dec 12:03:47 12:07:24 28° 264° (W) 12:11:02 437.675
nSIGHT-1 12 Dec 12:08:03 12:11:12 59° 140° (SE) 12:14:23 .
SPROUT 12 Dec 12:10:02 12:14:00 38° 98° (E) 12:17:57 437.525
Gurwin Techsat 1B 12 Dec 12:15:03 12:19:36 30° 67° (ENE) 12:24:10 435.225
NO-84 12 Dec 12:23:42 12:25:14 12° 19° (NNE) 12:26:49 435.350 FM
QB50P2 12 Dec 12:31:05 12:33:07 13° 269° (W) 12:35:10 145.880/145.840
ESTCUBE 1 12 Dec 12:35:57 12:39:46 27° 292° (WNW) 12:43:34 437.505/2401.250
ISS 12 Dec 12:40:05 12:43:22 86° 330° (NNW) 12:46:40 437.550
DUCHIFAT 1 12 Dec 12:40:11 12:42:35 15° 268° (W) 12:45:01 145.980
VELOX 1 12 Dec 12:44:22 12:48:42 55° 100° (E) 12:53:00 145.980
YUBILEINY 12 Dec 12:50:19 12:56:29 20° 63° (ENE) 13:02:35 435.215
AO-7 12 Dec 12:58:35 13:04:42 24° 53° (NE) 13:10:49 .
M-CUBED/EXP-1 PRIME 12 Dec 13:18:04 13:20:37 15° 58° (ENE) 13:23:15 437.505
AO-91 12 Dec 13:18:44 13:23:39 50° 260° (W) 13:28:11 145.960
BUGSAT 1 12 Dec 13:31:01 13:33:36 16° 267° (W) 13:36:10 437.445
Oscar 19 12 Dec 13:33:42 13:38:25 37° 262° (W) 13:43:11 437.125/150
50 SAT 12 Dec 13:38:24 13:41:28 45° 100° (E) 13:44:29 437.505
UKube-1 12 Dec 13:38:51 13:42:31 27° 96° (E) 13:46:08 .
nSIGHT-1 12 Dec 13:45:03 13:47:38 21° 337° (NNW) 13:50:12 .
SPROUT 12 Dec 13:46:43 13:49:35 18° 294° (WNW) 13:52:27 437.525
DX 1 12 Dec 13:48:28 13:52:46 57° 101° (E) 13:57:02 434.975-435.025
Gurwin Techsat 1B 12 Dec 13:54:37 13:59:25 34° 263° (W) 14:04:15 435.225
NO-84 12 Dec 13:59:37 14:03:17 43° 37° (NE) 14:07:12 435.350 FM
RS-15 12 Dec 14:10:05 14:21:28 47° 109° (ESE) 14:32:48 29.354- 29.394
ISS 12 Dec 14:17:54 14:20:15 18° 341° (NNW) 14:22:36 437.550
MOZHAYETS 4 12 Dec 14:18:08 14:21:02 16° 92° (E) 14:23:56
BEESAT 12 Dec 14:18:19 14:18:53 10° 89° (E) 14:19:27 436.000
VELOX 1 12 Dec 14:22:19 14:24:40 14° 297° (WNW) 14:27:00 145.980
ITAMSAT 1 12 Dec 14:39:39 14:44:42 53° 71° (ENE) 14:49:46 435.822/435.867
ITUPSAT 1 12 Dec 14:42:18 14:45:44 19° 94° (E) 14:49:09 437.325
SO-50 12 Dec 14:43:40 14:45:20 12° 107° (ESE) 14:47:00 436.795
YUBILEINY 12 Dec 14:45:34 14:54:27 85° 265° (W) 15:03:13 435.215
AO-7 12 Dec 14:48:13 14:56:31 83° 253° (WSW) 15:04:55 .
M-CUBED/EXP-1 PRIME 12 Dec 14:50:18 14:54:26 57° 255° (WSW) 14:58:53 437.505
DOVE 4 12 Dec 15:12:06 15:16:04 22° 66° (ENE) 15:19:58 437.250
UKube-1 12 Dec 15:14:51 15:18:26 26° 292° (WNW) 15:21:59 .
nSIGHT-1 12 Dec 15:23:43 15:24:46 11° 357° (N) 15:25:50 .
DX 1 12 Dec 15:26:20 15:28:27 13° 297° (WNW) 15:30:33 434.975-435.025
CUBESAT XI-V 12 Dec 15:33:53 15:37:45 25° 94° (E) 15:41:35 437.345
NO-84 12 Dec 15:37:10 15:40:27 25° 232° (SW) 15:43:53 435.350 FM
BEESAT 12 Dec 15:52:24 15:57:10 78° 286° (WNW) 16:01:56 436.000
MOZHAYETS 4 12 Dec 15:53:58 15:58:25 47° 288° (WNW) 16:02:50
ISS 12 Dec 15:56:33 15:57:45 12° 1° (N) 15:58:58 437.550
HO-68 12 Dec 16:14:52 16:17:39 13° 51° (NE) 16:20:24 435.675
ITUPSAT 1 12 Dec 16:19:13 16:23:43 43° 290° (WNW) 16:28:13 437.325
SO-50 12 Dec 16:20:44 16:25:10 69° 303° (WNW) 16:29:40 436.795
ITAMSAT 1 12 Dec 16:20:53 16:24:26 18° 267° (W) 16:28:01 435.822/435.867
RS-15 12 Dec 16:21:40 16:33:45 57° 311° (NW) 16:45:45 29.354- 29.394
KKS-1 12 Dec 16:26:11 16:28:49 15° 92° (E) 16:31:26 437.445
LilacSat-2 12 Dec 16:35:49 16:38:48 22° 69° (ENE) 16:41:48 437.200
YUBILEINY 12 Dec 16:45:03 16:49:48 16° 284° (WNW) 16:54:32 435.215
AO-7 12 Dec 16:45:57 16:50:23 15° 270° (W) 16:54:51 .
DOVE 4 12 Dec 16:48:16 16:53:22 48° 261° (W) 16:58:24 437.250
XW-2D 12 Dec 16:53:04 16:56:29 33° 72° (ENE) 16:59:56 145.860 - 145.880
nSIGHT-1 12 Dec 16:59:53 17:02:01 16° 18° (NNE) 17:04:10 .
KAITUO 1B 12 Dec 17:07:44 17:11:08 34° 72° (ENE) 17:14:34 145.475/437.950
NUDT-PHONESAT 12 Dec 17:08:32 17:11:50 32° 72° (ENE) 17:15:10 437.300
XW-2B 12 Dec 17:08:34 17:12:14 50° 74° (ENE) 17:15:55 145.730 - 145.750
CUBESAT XI-V 12 Dec 17:10:54 17:15:06 33° 290° (WNW) 17:19:17 437.345
CUTE 1.7 + AOD 2 12 Dec 17:15:21 17:18:00 16° 65° (ENE) 17:20:39 437.475
STARS 12 Dec 17:15:40 17:18:57 21° 94° (E) 17:22:13 437.465
O/OREOS (USA 219) 12 Dec 17:21:02 17:23:07 13° 52° (NE) 17:25:11 437.305
XW-2F 12 Dec 17:22:46 17:26:29 73° 76° (ENE) 17:30:17 145.980 - 146.000
CUTE-I 12 Dec 17:26:53 17:32:14 71° 74° (ENE) 17:37:35 437.470
ISS 12 Dec 17:32:39 17:35:13 21° 22° (NNE) 17:37:47 437.550
XW-2C 12 Dec 17:35:42 17:39:27 69° 259° (W) 17:43:15 145.795 - 145.815
CUBEBUG 2 12 Dec 17:38:06 17:40:48 17° 67° (ENE) 17:43:30 437.445
UWE-3 12 Dec 17:44:51 17:45:44 11° 63° (ENE) 17:46:38 435.000/436.395/437.385
HO-68 12 Dec 17:56:55 18:04:00 65° 70° (ENE) 18:11:07 435.675
KKS-1 12 Dec 18:01:21 18:05:36 46° 288° (WNW) 18:09:49 437.445
SO-50 12 Dec 18:05:10 18:06:29 11° 324° (NW) 18:07:49 436.795
PCSat 12 Dec 18:05:24 18:09:22 21° 106° (ESE) 18:13:21 145.827
LilacSat-2 12 Dec 18:09:50 18:12:56 24° 265° (W) 18:16:06 437.200
ZACube-1 12 Dec 18:14:37 18:16:10 12° 64° (ENE) 18:17:44 437.345
STRAND 1 12 Dec 18:15:02 18:16:08 11° 89° (E) 18:17:14 437.568
XW-2A 12 Dec 18:21:30 18:23:49 18° 69° (ENE) 18:26:09 145.665 - 145.685
XW-2D 12 Dec 18:28:28 18:30:45 15° 267° (W) 18:33:03 145.860 - 145.880
SEEDS 12 Dec 18:30:55 18:35:06 67° 75° (ENE) 18:39:19 437.485
nSIGHT-1 12 Dec 18:35:27 18:38:41 73° 37° (NE) 18:41:52 .
Oscar 11 12 Dec 18:37:52 18:39:58 13° 64° (ENE) 18:42:05 .
RS-15 12 Dec 18:40:19 18:49:44 24° 341° (NNW) 18:58:59 29.354- 29.394
KAITUO 1B 12 Dec 18:43:04 18:45:13 15° 268° (W) 18:47:22 145.475/437.950
NUDT-PHONESAT 12 Dec 18:43:37 18:45:46 15° 267° (W) 18:47:56 437.300
XW-2B 12 Dec 18:46:06 18:46:41 10° 270° (W) 18:47:17 145.730 - 145.750
AO-73 12 Dec 18:48:02 18:51:23 24° 69° (ENE) 18:54:44 145.935
CUTE 1.7 + AOD 2 12 Dec 18:49:25 18:53:27 43° 262° (W) 18:57:31 437.475
STARS 12 Dec 18:51:25 18:55:21 34° 290° (WNW) 18:59:15 437.465
AAUSAT CUBESAT 2 12 Dec 18:57:13 19:01:17 56° 75° (ENE) 19:05:23 437.432
O/OREOS (USA 219) 12 Dec 18:58:33 19:03:03 70° 251° (WSW) 19:07:29 437.305
ISS 12 Dec 19:08:42 19:11:58 69° 221° (SW) 19:15:14 437.550
CUTE-I 12 Dec 19:10:03 19:12:46 14° 270° (W) 19:15:29 437.470
CUBEBUG 2 12 Dec 19:13:08 19:17:08 39° 262° (W) 19:21:04 437.445
UWE-3 12 Dec 19:17:30 19:21:39 66° 259° (W) 19:25:46 435.000/436.395/437.385
HO-68 12 Dec 19:46:43 19:52:11 23° 267° (W) 19:57:42 435.675
PCSat 12 Dec 19:47:04 19:52:20 52° 303° (WNW) 19:57:39 145.827
ZACube-1 12 Dec 19:47:53 19:51:57 57° 260° (W) 19:56:02 437.345
STRAND 1 12 Dec 19:50:47 19:55:54 83° 285° (WNW) 20:01:00 437.568
XW-2A 12 Dec 19:53:42 19:56:21 22° 265° (W) 19:59:02 145.665 - 145.685
Oscar 11 12 Dec 20:11:24 20:15:37 56° 260° (W) 20:19:53 .
nSIGHT-1 12 Dec 20:13:27 20:14:27 11° 231° (SW) 20:15:27 .
DELFI C3 12 Dec 20:21:10 20:24:46 33° 72° (ENE) 20:28:23 145.870
AO-73 12 Dec 20:24:05 20:27:31 25° 265° (W) 20:30:58 145.935
FO-29 12 Dec 20:28:31 20:35:32 67° 100° (E) 20:41:39 435.910
AAUSAT CUBESAT 2 12 Dec 20:35:39 20:37:03 11° 270° (W) 20:38:28 437.432
BEESAT 3 12 Dec 20:42:26 20:46:25 87° 122° (ESE) 20:50:26 437.485
TIGRISAT 12 Dec 20:44:56 20:45:54 11° 90° (E) 20:46:53 435.000
UNISAT 6 12 Dec 20:46:40 20:48:38 13° 91° (E) 20:50:36 437.425
RS-15 12 Dec 20:59:01 21:08:09 24° 17° (NNE) 21:16:56 29.354- 29.394
Max Valier Satellite 12 Dec 20:59:34 21:03:10 66° 76° (ENE) 21:06:49 145.860
BEESAT 2 12 Dec 21:16:53 21:20:47 54° 118° (ESE) 21:24:46 435.950
EO-88 12 Dec 21:32:56 21:36:31 66° 259° (W) 21:40:10 145.990 - 145.960
STRAND 1 12 Dec 21:33:28 21:34:14 10° 302° (WNW) 21:34:59 437.568
AO-85 12 Dec 21:35:15 21:38:06 20° 111° (ESE) 21:41:04 145.980
PCSat 12 Dec 21:36:32 21:37:02 10° 324° (NW) 21:37:31 145.827
DELFI C3 12 Dec 21:56:53 21:59:35 17° 267° (W) 22:02:17 145.870
ESTCUBE 1 12 Dec 21:58:12 22:01:52 25° 68° (ENE) 22:05:32 437.505/2401.250
PRISM 12 Dec 22:06:01 22:09:29 26° 96° (E) 22:12:54 437.425
LO-87 12 Dec 22:10:55 22:14:13 38° 73° (ENE) 22:17:31 145.935 - 145.965
FO-29 12 Dec 22:14:37 22:19:47 22° 301° (WNW) 22:24:34 435.910
TIGRISAT 12 Dec 22:18:41 22:22:58 64° 285° (WNW) 22:27:19 435.000
UNISAT 6 12 Dec 22:21:24 22:25:38 54° 286° (WNW) 22:29:55 437.425
BEESAT 3 12 Dec 22:23:05 22:24:31 12° 320° (NW) 22:25:57 437.485
FALCONSAT 3 12 Dec 22:40:58 22:43:16 16° 157° (SSE) 22:45:34 435.103
AIST 2D 12 Dec 22:50:50 22:53:59 29° 97° (E) 22:57:08 435.315
BEESAT 2 12 Dec 22:56:14 22:58:50 16° 316° (NW) 23:01:27 435.950
SPROUT 12 Dec 23:02:44 23:06:21 27° 69° (ENE) 23:09:57 437.525
RS-15 12 Dec 23:12:31 23:24:09 56° 48° (NE) 23:35:07 29.354- 29.394
NANOSAT C BR1 12 Dec 23:13:10 23:15:42 16° 92° (E) 23:18:14 145.865
SO-50 12 Dec 23:13:14 23:15:44 14° 40° (NE) 23:18:14 436.795
AO-85 12 Dec 23:14:39 23:18:14 33° 310° (NW) 23:22:00 145.980
EO-79 12 Dec 23:26:13 23:29:43 25° 96° (E) 23:33:12 145.935-145.965
ESTCUBE 1 12 Dec 23:34:33 23:38:31 30° 264° (W) 23:42:31 437.505/2401.250
VELOX 1 12 Dec 23:40:39 23:44:53 45° 72° (ENE) 23:49:09 145.980
PRISM 12 Dec 23:41:19 23:44:38 24° 292° (WNW) 23:47:55 437.425
LO-87 12 Dec 23:46:27 23:47:46 12° 268° (W) 23:49:04 145.935 - 145.965
POLYITAN 1 12 Dec 23:48:10 23:52:14 44° 99° (E) 23:56:16 437.675
50 SAT 13 Dec 00:05:18 00:06:44 12° 67° (ENE) 00:08:09 437.505
QB50P2 13 Dec 00:13:35 00:17:48 81° 286° (WNW) 00:22:02 145.880/145.840
FALCONSAT 3 13 Dec 00:18:28 00:21:50 34° 171° (S) 00:25:11 435.103
DUCHIFAT 1 13 Dec 00:22:12 00:26:24 85° 100° (E) 00:30:36 145.980
AIST 2D 13 Dec 00:24:43 00:26:53 16° 292° (WNW) 00:29:04 435.315
UKube-1 13 Dec 00:32:53 00:36:14 22° 67° (ENE) 00:39:35 .
Gurwin Techsat 1B 13 Dec 00:33:52 00:35:24 11° 89° (E) 00:36:56 435.225
SPROUT 13 Dec 00:38:43 00:42:10 24° 265° (W) 00:45:38 437.525
DX 1 13 Dec 00:43:06 00:47:18 46° 72° (ENE) 00:51:30 434.975-435.025
NANOSAT C BR1 13 Dec 00:47:37 00:51:35 41° 288° (WNW) 00:55:32 145.865
SO-50 13 Dec 00:52:09 00:56:50 88° 52° (NE) 01:01:35 436.795
EO-79 13 Dec 01:01:52 01:05:23 26° 291° (WNW) 01:08:53 145.935-145.965
AO-91 13 Dec 01:10:00 01:13:00 26° 96° (E) 01:15:53 145.960
BUGSAT 1 13 Dec 01:11:06 01:15:08 69° 102° (ESE) 01:19:10 437.445
VELOX 1 13 Dec 01:18:46 01:21:32 16° 267° (W) 01:24:19 145.980
MOZHAYETS 4 13 Dec 01:19:59 01:22:40 16° 64° (ENE) 01:25:20
BEESAT 13 Dec 01:23:27 01:25:34 13° 61° (ENE) 01:27:40 436.000
POLYITAN 1 13 Dec 01:25:05 01:27:37 16° 295° (WNW) 01:30:10 437.675
RS-15 13 Dec 01:25:32 01:36:17 45° 252° (WSW) 01:46:33 29.354- 29.394
50 SAT 13 Dec 01:35:35 01:38:23 29° 262° (W) 01:41:13 437.505
Oscar 19 13 Dec 01:45:05 01:50:19 79° 104° (ESE) 01:55:31 437.125/150
ITUPSAT 1 13 Dec 01:48:33 01:52:13 22° 66° (ENE) 01:55:52 437.325
YUBILEINY 13 Dec 01:51:45 01:58:07 23° 80° (E) 02:04:30 435.215
FALCONSAT 3 13 Dec 01:57:10 02:00:34 35° 187° (S) 02:03:57 435.103
UKube-1 13 Dec 02:08:11 02:12:02 32° 263° (W) 02:15:56 .
Gurwin Techsat 1B 13 Dec 02:10:37 02:15:58 84° 285° (WNW) 02:21:17 435.225
DX 1 13 Dec 02:21:06 02:23:41 15° 267° (W) 02:26:16 434.975-435.025
M-CUBED/EXP-1 PRIME 13 Dec 02:31:53 02:32:53 11° 93° (E) 02:33:52 437.505
CUBESAT XI-V 13 Dec 02:36:43 02:40:23 23° 67° (ENE) 02:44:05 437.345
AO-91 13 Dec 02:47:11 02:49:16 15° 294° (WNW) 02:51:17 145.960
AO-7 13 Dec 02:50:50 02:58:18 35° 98° (E) 03:05:43 .
PCSat 13 Dec 02:52:55 02:56:42 19° 45° (NE) 03:00:27 145.827
ITAMSAT 1 13 Dec 02:53:57 02:57:33 19° 93° (E) 03:01:07 435.822/435.867
MOZHAYETS 4 13 Dec 02:54:55 02:59:21 53° 260° (W) 03:03:49
BEESAT 13 Dec 02:57:58 03:02:42 72° 257° (WSW) 03:07:28 436.000
KKS-1 13 Dec 03:24:08 03:26:37 15° 63° (ENE) 03:29:07 437.445
ITUPSAT 1 13 Dec 03:25:22 03:29:46 38° 261° (W) 03:34:13 437.325
Oscar 19 13 Dec 03:26:27 03:28:56 14° 300° (WNW) 03:31:25 437.125/150
FALCONSAT 3 13 Dec 03:36:37 03:39:09 18° 202° (SSW) 03:41:42 435.103
YUBILEINY 13 Dec 03:45:09 03:53:56 74° 279° (W) 04:02:50 435.215
Gurwin Techsat 1B 13 Dec 03:53:29 03:55:03 11° 302° (WNW) 03:56:37 435.225
M-CUBED/EXP-1 PRIME 13 Dec 04:03:13 04:07:45 72° 291° (WNW) 04:12:02 437.505
STARS 13 Dec 04:12:00 04:15:02 19° 65° (ENE) 04:18:04 437.465
CUBESAT XI-V 13 Dec 04:13:18 04:17:32 35° 263° (W) 04:21:49 437.345
ITAMSAT 1 13 Dec 04:32:16 04:37:17 51° 289° (WNW) 04:42:15 435.822/435.867
PCSat 13 Dec 04:35:15 04:40:41 74° 244° (WSW) 04:46:04 145.827
AO-7 13 Dec 04:43:13 04:51:16 53° 295° (WNW) 04:59:18 .
DOVE 4 13 Dec 04:48:06 04:52:30 49° 99° (E) 04:56:39 437.250
KKS-1 13 Dec 04:58:19 05:02:42 54° 259° (W) 05:07:06 437.445
BEESAT 3 13 Dec 04:59:32 05:03:16 40° 53° (NE) 05:06:55 437.485
XW-2C 13 Dec 05:10:10 05:11:55 13° 91° (E) 05:13:39 145.795 - 145.815
STRAND 1 13 Dec 05:29:19 05:32:30 17° 62° (ENE) 05:35:40 437.568
HO-68 13 Dec 05:29:39 05:30:55 10° 87° (E) 05:32:10 435.675
BEESAT 2 13 Dec 05:34:59 05:38:31 28° 50° (NE) 05:41:58 435.950
LilacSat-2 13 Dec 05:42:40 05:46:15 34° 98° (E) 05:49:48 437.200
CUTE-I 13 Dec 05:44:54 05:49:30 29° 96° (E) 05:54:04 437.470
STARS 13 Dec 05:46:55 05:51:03 40° 261° (W) 05:55:13 437.465
YUBILEINY 13 Dec 05:48:00 05:52:27 15° 301° (WNW) 05:56:56 435.215
XW-2D 13 Dec 05:59:25 06:03:12 54° 100° (E) 06:06:58 145.860 - 145.880
AO-85 13 Dec 06:05:09 06:08:55 23° 47° (NE) 06:12:52 145.980
NUDT-PHONESAT 13 Dec 06:12:05 06:15:45 48° 99° (E) 06:19:23 437.300
KAITUO 1B 13 Dec 06:12:29 06:16:13 53° 99° (E) 06:19:54 145.475/437.950
XW-2B 13 Dec 06:15:10 06:19:02 83° 103° (ESE) 06:22:52 145.730 - 145.750
SEEDS 13 Dec 06:17:12 06:18:43 12° 90° (E) 06:20:15 437.485
DOVE 4 13 Dec 06:27:03 06:29:42 16° 297° (WNW) 06:32:17 437.250
XW-2F 13 Dec 06:28:56 06:32:46 70° 283° (WNW) 06:36:34 145.980 - 146.000
CUTE 1.7 + AOD 2 13 Dec 06:34:37 06:38:29 32° 97° (E) 06:42:18 437.475
BEESAT 3 13 Dec 06:37:58 06:40:27 16° 250° (WSW) 06:42:54 437.485
FO-29 13 Dec 06:38:27 06:45:08 33° 63° (ENE) 06:51:54 435.910
AO-7 13 Dec 06:39:22 06:42:07 12° 317° (NW) 06:44:54 .
XW-2C 13 Dec 06:42:37 06:46:17 42° 287° (WNW) 06:49:56 145.795 - 145.815
NO-84 13 Dec 06:51:07 06:54:01 49° 133° (SE) 06:57:09 435.350 FM
